Location: Stull Observatory
(42.2506°N, 77.7903°W)
Time: 00:54:52
(UTC-04:00)

Daily predictions for brighter satellites

Satellite Brightness Start Highest point End
(mag) Time Altitude Azimuth Time Altitude Azimuth Time Altitude Azimuth
SL-16 R/B 4.4 02:56:28 24° NNE 02:56:28 24° NNE 02:59:15 10° N
Cosmos 2227 Rocket 4.4 03:11:35 20° ENE 03:11:35 20° ENE 03:13:39 10° NE
ATLAS 2AS CENTAUR R/B 4.2 03:15:25 32° NNW 03:15:25 32° NNW 03:20:57 10° NNE
Cosmos 2297 Rocket 4.3 03:19:29 22° ENE 03:19:29 22° ENE 03:22:02 10° NE
Cosmos 2344 3.9 03:27:45 64° NE 03:27:45 64° NE 03:35:02 10° NE
Lacrosse 5 4.3 03:33:01 20° NE 03:33:01 20° NE 03:34:31 10° NE
BREEZE-M DEB (TANK) 4.3 03:37:52 56° ENE 03:37:52 56° ENE 03:47:59 10° ESE
USA 215 3.5 03:55:56 10° SE 04:01:22 64° ESE 04:01:22 64° ESE
CENTAUR R/B 4.0 03:56:11 10° NNW 04:03:32 45° NE 04:11:23 10° ESE
Cosmos 1727 Rocket 4.3 04:04:16 63° ENE 04:04:16 63° ENE 04:10:03 10° NNE
CZ-2D R/B 3.3 04:20:18 10° N 04:23:15 34° N 04:23:15 34° N
Cosmos 1898 Rocket 4.1 04:29:39 51° SE 04:30:07 52° ESE 04:35:16 10° NNE
Cosmos 1153 Rocket 4.4 04:27:24 10° N 04:33:47 84° W 04:34:27 73° SSW
Lacrosse 5 rocket 3.9 04:37:13 14° N 04:37:13 14° N 04:39:22 10° NNE
SL-16 R/B 4.3 04:41:34 17° NW 04:41:34 17° NW 04:43:04 10° NNW
Resurs 1-4 Rocket 3.3 04:32:17 10° N 04:35:22 32° NNW 04:35:22 32° NNW
Cosmos 724 4.3 04:36:28 61° NW 04:37:40 86° WSW 04:43:53 10° SSE
Cosmos 1339 Rocket 4.4 04:37:17 75° SW 04:37:48 81° W 04:44:15 10° N
Cosmos 1937 Rocket 4.5 04:36:06 33° SSE 04:37:49 44° ESE 04:42:49 10° NNE
Meteor 2-4 Rocket 3.8 04:38:08 58° SSE 04:39:18 78° E 04:45:15 10° NNE
Meteor 1-19 Rocket 4.2 04:40:30 70° NNW 04:40:30 70° NNW 04:45:34 10° N
SL-16 R/B 2.1 04:37:08 10° NNW 04:42:51 88° WSW 04:48:31 10° SSE
NOSS 3-4 (A) 4.0 04:43:54 44° NW 04:43:57 44° NW 04:50:15 10° NNE
NOSS 3-4 (C) 4.0 04:43:59 45° NW 04:44:03 45° NW 04:50:22 10° NNE
Meteor 2-9 Rocket 4.3 04:40:09 10° N 04:45:52 80° E 04:51:40 10° SSE
DELTA 2 R/B (1) 3.7 04:46:14 62° SSE 04:46:14 62° SSE 04:51:38 10° E
Okean O Rocket 1.7 04:46:19 10° NNE 04:50:21 71° NE 04:50:21 71° NE
ARIANE 5 R/B 4.2 04:47:14 10° N 04:49:14 20° NNW 04:49:14 20° NNW
BREEZE-M DEB (TANK) 3.3 04:53:01 61° ENE 04:53:01 61° ENE 04:55:12 10° ENE
Cosmos 2227 Rocket 3.0 04:53:24 36° NW 04:53:24 36° NW 04:57:52 10° N
MOS 1-B 4.4 04:48:13 10° N 04:53:52 58° WNW 04:53:53 58° WNW
Meteor 1-23 Rocket 4.1 04:52:38 54° SSW 04:54:02 88° W 04:59:48 10° N
Cosmos 2297 Rocket 2.6 05:01:19 43° NW 05:01:19 43° NW 05:06:32 10° NNE
Cosmos 1892 Rocket 3.6 05:01:48 67° NNW 05:01:48 67° NNW 05:05:49 10° N
Cosmos 2228 3.3 04:59:02 10° N 05:03:26 69° E 05:07:45 10° SSE
CZ-4B R/B 3.2 04:59:01 10° NNE 05:03:30 80° ESE 05:04:41 49° S
Lacrosse 5 3.1 05:12:13 27° NW 05:12:51 27° NNW 05:17:12 10° NNE
Cosmos 2100 Rocket 3.9 05:08:02 10° NNW 05:14:14 66° W 05:20:27 10° S
Okean 2 3.8 05:16:05 45° NW 05:16:05 45° NW 05:19:22 10° N
Cosmos 1802 Rocket 3.8 05:13:20 10° N 05:19:29 75° W 05:25:35 10° S
Cosmos 2061 Rocket 4.0 05:17:02 10° NNW 05:23:16 62° W 05:29:33 10° S
Cosmos 1725 Rocket 4.3 05:17:55 10° N 05:24:13 69° E 05:30:25 10° SSE
Cosmos 1346 Rocket 4.2 05:27:35 24° NW 05:27:35 24° NW 05:29:50 10° N
ADEOS II 2.4 05:22:13 10° NNE 05:27:29 68° ESE 05:32:43 10° S
OAO 2 Rocket 4.4 05:26:15 28° SSW 05:28:02 35° S 05:32:51 10° ESE
CZ-4B DEB 4.1 05:24:26 10° N 05:29:53 66° WNW 05:34:08 17° SSW
Cosmos 1603 3.7 05:25:00 10° NNW 05:30:46 86° ENE 05:36:27 10° SSE
Cosmos 2263 Rocket 4.4 05:28:17 10° SSE 05:32:43 25° ESE 05:37:09 10° NE
Cosmos 990 Rocket 3.9 05:30:49 19° SSW 05:34:39 78° WNW 05:39:55 10° NNE
ASTRO F (AKARI) 4.2 05:36:10 10° S 05:39:20 66° WSW 05:42:38 10° NNW
Genesis I 3.1 05:40:15 33° SW 05:41:57 72° NW 05:45:57 10° NNE
ADEOS Rocket 3.2 05:35:52 10° N 05:42:51 68° WNW 05:49:05 10° SSW
Cosmos 2016 Rocket 4.0 05:37:54 10° NNW 05:44:04 58° W 05:50:10 10° S
USA 215 4.0 05:40:22 10° S 05:45:53 29° SW 05:48:46 21° W
Cosmos 2058 Rocket 4.0 05:43:01 10° NNW 05:46:14 27° WNW 05:46:14 27° WNW
USA 116 4.0 05:42:19 10° S 05:47:16 77° WSW 05:51:42 10° NNW
Cosmos 2173 Rocket 4.4 05:43:15 10° NNW 05:48:47 38° W 05:54:21 10° SSW
EXPRESS MD2 3.8 05:51:19 28° W 05:52:52 48° SSW 05:58:49 10° SE
Cosmos 1174 3.6 05:52:41 32° W 05:53:27 39° WSW 05:56:39 10° S
Tiangong 1 0.9 05:52:47 38° W 05:53:46 68° SSW 05:56:46 10° ESE
Thor Agena Rocket 3.8 05:48:57 10° S 05:54:01 47° W 05:59:07 10° NNW
CENTAUR R/B 3.2 05:46:54 10° NW 05:54:30 52° WSW 06:02:30 10° S
Cosmos 1515 3.7 05:51:08 10° SSW 05:54:54 57° W 05:58:41 10° N
COSMO-SKYMED 1 4.0 05:53:05 10° SE 05:57:08 41° ENE 06:01:13 10° N
Meteor 1-31 Rocket 2.9 05:55:08 10° NNE 05:59:04 77° ESE 06:03:00 10° S
FALCON 9 R/B 4.3 05:54:20 13° SW 06:00:43 53° SSE 06:27:12 10° E
Okean-O 2.7 05:57:06 10° N 06:01:28 58° WNW 06:05:49 10° SSW
Cosmos 1340 2.7 05:57:54 10° S 06:01:41 83° E 06:05:31 10° NNE
CZ-4B R/B 3.9 05:59:17 10° N 06:04:02 32° WNW 06:08:27 12° SW
CZ-3A R/B 4.4 06:01:40 10° SW 06:04:22 12° SSW 06:06:14 10° S
Cosmos 2123 Rocket 4.0 05:59:29 10° SSW 06:05:31 58° W 06:11:38 10° N
NOSS 2-2 (D) 4.1 06:04:34 18° WSW 06:07:21 43° NW 06:12:02 10° NNE
Meteor PRIRODA 3.9 06:05:58 10° N 06:09:34 47° WNW 06:13:06 10° SSW
Cosmos 1626 Rocket 4.1 06:06:22 10° SW 06:10:25 37° WNW 06:14:27 10° N
NOSS 5 (C) 4.4 06:14:23 11° SW 06:17:35 56° NW 06:20:40 10° NNE
Lacrosse 5 rocket 4.0 06:15:48 10° NNW 06:17:52 13° N 06:19:54 10° NE
Cosmos 1125 Rocket 3.4 06:13:28 10° SSW 06:18:40 80° WNW 06:23:54 10° NNE
BREEZE M DEB (TANK) 4.5 06:16:22 10° WNW 06:20:13 45° NNE 06:33:28 10° E
Radarsat Rocket 4.3 06:14:42 10° NNE 06:21:19 77° ESE 06:27:18 10° SSW
Cosmos 2098 Rocket 4.4 06:21:42 10° NW 06:25:05 22° W 06:29:03 10° SW
SL-16 R/B 3.8 06:24:10 10° WNW 06:26:03 12° W 06:27:56 10° WSW
Okean O Rocket 3.6 06:25:11 10° NW 06:26:27 11° WNW 06:27:43 10° WNW
CZ-4B R/B 3.9 06:24:12 10° N 06:27:57 48° WNW 06:31:32 10° SSW
Cosmos 1842 3.9 06:25:22 10° S 06:29:11 61° E 06:33:02 10° NNE
Cosmos 1953 Rocket 3.7 06:26:01 10° S 06:30:29 84° E 06:35:00 10° N
DELTA 2 R/B (1) 3.8 06:27:00 11° W 06:32:23 63° S 06:37:53 10° ESE
Cosmos 1953 3.6 06:31:20 10° N 06:35:14 47° E 06:39:07 10° SSE
Iridium 4 Rocket 3.2 06:32:47 10° S 06:37:34 80° W 06:41:58 10° N
Cosmos 1464 Rocket 4.3 06:34:35 10° N 06:40:44 76° E 06:46:53 10° SSE
Cosmos 2084 Rocket 3.9 06:37:30 10° NW 06:41:05 35° WSW 06:44:49 10° S
NOAA 6 4.2 06:38:03 10° N 06:43:09 56° WNW 06:48:12 10° SSW
Cosmos 1758 Rocket 3.5 06:39:09 10° S 06:43:27 82° W 06:47:48 10° N
SKYMED 2 3.6 06:40:52 10° S 06:45:09 59° W 06:49:27 10° NNW
MOS 1 Rocket 4.1 06:41:20 10° N 06:45:45 35° WNW 06:50:24 10° SW
CSL-04 Rocket 3.9 06:41:34 10° NNE 06:46:52 78° ESE 06:52:11 10° S
